Location: Albany
(35.0000°S, 118.0000°E)
Time: 19:35:47
(UTC-04:00)

Cosmos 1626 - Visible Passes

Search period start: 19 October 2017 00:00
Search period end: 29 October 2017 00:00
Orbit: 496 x 499 km, 82.5° (Epoch: 19 October)

Date Brightness Start Highest point End Pass type
(mag) Time Alt. Az. Time Alt. Az. Time Alt. Az.
19 Oct 5.6 08:01:38 10° W 08:03:13 12° WSW 08:04:48 10° SW visible
20 Oct 5.3 07:39:52 10° WNW 07:42:27 18° WSW 07:45:05 10° SSW visible
21 Oct 4.8 07:18:34 10° NW 07:21:44 25° WSW 07:24:55 10° SSW visible
22 Oct 4.0 06:57:31 10° NNW 07:01:01 37° W 07:04:34 10° S visible
23 Oct 5.9 16:34:31 10° SE 16:36:12 12° ESE 16:37:50 10° E visible
26 Oct 6.3 07:13:32 10° W 07:13:56 10° WSW 07:14:21 10° WSW visible
28 Oct 4.4 16:24:58 10° SSE 16:28:21 30° E 16:31:41 10° NE visible
